Onweer radar Meer informatie blitzortung!


Regen radar Meer informatie rain snow radar



Select another period ( hide this area )

Eenheden Periode Custom range Directly to
Metrisch Engels Beide
Dagelijkse Wekelijkse Maandelijkse Jaarlijkse
use both date-selectors for a custom range
previous Dag
With this date

WeatherUnderground graphs for this period ( click here )


Dagelijkse Samenvatting Donderdag 22 augustus 2019
Tijd Temp. ( °C ) Dew pt. ( °C ) Wind ( km/h ) van Windvlaag ( km/h ) Luchtdruk ( hPa ) Humid.( % ) Rainrate ( cm )
Hoog14,9 11,9 0,0 ( 0/0 ) 1,6 1026,0 89 -
Gemiddeld12,7 10,5 0,0 Kalm #79/79 0,0 1024,9 87 -
Laag11,4 9,7 -   0,0 1023,9 82 -
Dagelijkse Tabular details for Donderdag 22 augustus 2019
Tijd Temp. ( °C ) Dew pt. ( °C ) Wind ( km/h ) van Windvlaag ( km/h ) Luchtdruk ( hPa ) Humid.( % ) Rainrate ( cm )
00:04 14,9 11,9   Kalm   1026,0 82 -
00:09 14,9 11,9   Kalm 1,6 1026,0 82 -
00:14 14,8 11,8   Kalm   1026,0 82 -
00:19 14,8 11,8   Kalm   1026,0 82 -
00:24 14,7 11,7   Kalm   1025,6 82 -
00:29 14,6 11,6   Kalm   1025,6 82 -
00:34 14,6 11,7   Kalm   1025,6 83 -
00:39 14,4 11,5   Kalm   1025,6 83 -
00:44 14,4 11,5   Kalm   1025,6 83 -
00:49 14,3 11,5   Kalm   1025,6 83 -
00:54 14,2 11,4   Kalm   1025,6 83 -
00:59 14,2 11,5   Kalm   1025,6 84 -
01:04 14,1 11,4   Kalm   1025,6 84 -
01:09 14,0 11,3   Kalm   1025,6 84 -
01:14 13,9 11,2   Kalm   1025,6 84 -
01:19 13,8 11,1   Kalm   1025,6 84 -
01:24 13,8 11,1   Kalm   1025,6 84 -
01:29 13,7 11,2   Kalm   1025,6 85 -
01:34 13,6 11,1   Kalm   1025,6 85 -
01:39 13,6 11,1   Kalm   1025,3 85 -
01:44 13,4 10,9   Kalm   1025,3 85 -
01:49 13,4 10,9   Kalm   1025,3 85 -
01:54 13,3 10,8   Kalm   1025,3 85 -
01:59 13,3 11,0   Kalm   1025,3 86 -
02:04 13,2 10,9   Kalm   1024,9 86 -
02:09 13,1 10,8   Kalm   1024,9 86 -
02:14 13,1 10,8   Kalm   1024,9 86 -
02:19 13,0 10,7   Kalm   1024,9 86 -
02:24 12,9 10,8   Kalm   1024,9 87 -
02:29 12,9 10,8   Kalm   1024,9 87 -
02:34 12,8 10,7   Kalm   1024,9 87 -
02:39 12,8 10,7   Kalm   1024,9 87 -
02:44 12,7 10,6   Kalm   1024,9 87 -
02:49 12,7 10,6   Kalm   1024,9 87 -
02:54 12,6 10,5   Kalm   1024,9 87 -
02:59 12,6 10,5   Kalm   1024,9 87 -
03:04 12,5 10,4   Kalm   1024,9 87 -
03:09 12,4 10,3   Kalm   1024,9 87 -
03:14 12,4 10,3   Kalm   1024,9 87 -
03:19 12,4 10,5   Kalm   1024,9 88 -
03:24 12,3 10,4   Kalm   1024,9 88 -
03:29 12,3 10,4   Kalm   1024,9 88 -
03:34 12,3 10,4   Kalm   1024,9 88 -
03:39 12,2 10,3   Kalm   1024,9 88 -
03:44 12,2 10,3   Kalm   1024,9 88 -
03:49 12,2 10,3   Kalm   1024,9 88 -
03:54 12,1 10,2   Kalm   1024,9 88 -
03:59 12,1 10,2   Kalm   1024,9 88 -
04:04 12,1 10,2   Kalm   1024,6 88 -
04:09 12,0 10,2   Kalm   1024,6 89 -
04:14 11,9 10,1   Kalm   1024,6 89 -
04:19 11,9 10,0   Kalm   1024,6 88 -
04:24 11,9 10,1   Kalm   1024,6 89 -
04:29 11,8 10,0   Kalm   1024,6 89 -
04:34 11,8 10,0   Kalm   1024,6 89 -
04:39 11,8 10,0   Kalm   1024,6 89 -
04:44 11,8 10,0   Kalm   1024,6 89 -
04:49 11,7 9,9   Kalm   1024,6 89 -
04:54 11,7 9,9   Kalm   1024,6 89 -
04:59 11,7 9,9   Kalm   1024,3 89 -
05:04 11,7 9,9   Kalm   1024,3 89 -
05:09 11,6 9,8   Kalm   1024,3 89 -
05:14 11,6 9,8   Kalm   1024,3 89 -
05:19 11,6 9,8   Kalm   1024,3 89 -
05:24 11,6 9,8   Kalm   1024,3 89 -
05:29 11,5 9,7   Kalm   1024,3 89 -
05:34 11,5 9,7   Kalm   1024,3 89 -
05:39 11,4 9,7   Kalm   1023,9 89 -
05:44 11,4 9,7   Kalm   1023,9 89 -
05:49 11,4 9,7   Kalm   1023,9 89 -
05:54 11,5 9,7   Kalm   1023,9 89 -
05:59 11,5 9,7   Kalm   1023,9 89 -
06:04 11,6 9,8   Kalm   1023,9 89 -
06:09 11,6 9,8   Kalm   1023,9 89 -
06:14 11,6 9,8   Kalm   1023,9 89 -
06:19 11,7 9,9   Kalm   1023,9 89 -
06:24 11,7 9,9   Kalm   1023,9 89 -
06:29 11,7 9,9   Kalm   1023,9 89 -
06:34 11,7 9,9   Kalm   1023,9 89 -
Dagelijkse Samenvatting Donderdag 22 augustus 2019
Tijd Temp. ( °C ) Dew pt. ( °C ) Wind ( km/h ) van Windvlaag ( km/h ) Luchtdruk ( hPa ) Humid.( % ) Rainrate ( cm )
Hoog14,9 11,9 0,0 ( 0/0 ) 1,6 1026,0 89 -
Gemiddeld12,7 10,5 0,0 Kalm #79/79 0,0 1024,9 87 -
Laag11,4 9,7 -   0,0 1023,9 82 -
Dagelijkse Tabular details for Donderdag 22 augustus 2019
Tijd Temp. ( °C ) Dew pt. ( °C ) Wind ( km/h ) van Windvlaag ( km/h ) Luchtdruk ( hPa ) Humid.( % ) Rainrate ( cm )
00:04 14,9 11,9   Kalm   1026,0 82 -
00:09 14,9 11,9   Kalm 1,6 1026,0 82 -
00:14 14,8 11,8   Kalm   1026,0 82 -
00:19 14,8 11,8   Kalm   1026,0 82 -
00:24 14,7 11,7   Kalm   1025,6 82 -
00:29 14,6 11,6   Kalm   1025,6 82 -
00:34 14,6 11,7   Kalm   1025,6 83 -
00:39 14,4 11,5   Kalm   1025,6 83 -
00:44 14,4 11,5   Kalm   1025,6 83 -
00:49 14,3 11,5   Kalm   1025,6 83 -
00:54 14,2 11,4   Kalm   1025,6 83 -
00:59 14,2 11,5   Kalm   1025,6 84 -
01:04 14,1 11,4   Kalm   1025,6 84 -
01:09 14,0 11,3   Kalm   1025,6 84 -
01:14 13,9 11,2   Kalm   1025,6 84 -
01:19 13,8 11,1   Kalm   1025,6 84 -
01:24 13,8 11,1   Kalm   1025,6 84 -
01:29 13,7 11,2   Kalm   1025,6 85 -
01:34 13,6 11,1   Kalm   1025,6 85 -
01:39 13,6 11,1   Kalm   1025,3 85 -
01:44 13,4 10,9   Kalm   1025,3 85 -
01:49 13,4 10,9   Kalm   1025,3 85 -
01:54 13,3 10,8   Kalm   1025,3 85 -
01:59 13,3 11,0   Kalm   1025,3 86 -
02:04 13,2 10,9   Kalm   1024,9 86 -
02:09 13,1 10,8   Kalm   1024,9 86 -
02:14 13,1 10,8   Kalm   1024,9 86 -
02:19 13,0 10,7   Kalm   1024,9 86 -
02:24 12,9 10,8   Kalm   1024,9 87 -
02:29 12,9 10,8   Kalm   1024,9 87 -
02:34 12,8 10,7   Kalm   1024,9 87 -
02:39 12,8 10,7   Kalm   1024,9 87 -
02:44 12,7 10,6   Kalm   1024,9 87 -
02:49 12,7 10,6   Kalm   1024,9 87 -
02:54 12,6 10,5   Kalm   1024,9 87 -
02:59 12,6 10,5   Kalm   1024,9 87 -
03:04 12,5 10,4   Kalm   1024,9 87 -
03:09 12,4 10,3   Kalm   1024,9 87 -
03:14 12,4 10,3   Kalm   1024,9 87 -
03:19 12,4 10,5   Kalm   1024,9 88 -
03:24 12,3 10,4   Kalm   1024,9 88 -
03:29 12,3 10,4   Kalm   1024,9 88 -
03:34 12,3 10,4   Kalm   1024,9 88 -
03:39 12,2 10,3   Kalm   1024,9 88 -
03:44 12,2 10,3   Kalm   1024,9 88 -
03:49 12,2 10,3   Kalm   1024,9 88 -
03:54 12,1 10,2   Kalm   1024,9 88 -
03:59 12,1 10,2   Kalm   1024,9 88 -
04:04 12,1 10,2   Kalm   1024,6 88 -
04:09 12,0 10,2   Kalm   1024,6 89 -
04:14 11,9 10,1   Kalm   1024,6 89 -
04:19 11,9 10,0   Kalm   1024,6 88 -
04:24 11,9 10,1   Kalm   1024,6 89 -
04:29 11,8 10,0   Kalm   1024,6 89 -
04:34 11,8 10,0   Kalm   1024,6 89 -
04:39 11,8 10,0   Kalm   1024,6 89 -
04:44 11,8 10,0   Kalm   1024,6 89 -
04:49 11,7 9,9   Kalm   1024,6 89 -
04:54 11,7 9,9   Kalm   1024,6 89 -
04:59 11,7 9,9   Kalm   1024,3 89 -
05:04 11,7 9,9   Kalm   1024,3 89 -
05:09 11,6 9,8   Kalm   1024,3 89 -
05:14 11,6 9,8   Kalm   1024,3 89 -
05:19 11,6 9,8   Kalm   1024,3 89 -
05:24 11,6 9,8   Kalm   1024,3 89 -
05:29 11,5 9,7   Kalm   1024,3 89 -
05:34 11,5 9,7   Kalm   1024,3 89 -
05:39 11,4 9,7   Kalm   1023,9 89 -
05:44 11,4 9,7   Kalm   1023,9 89 -
05:49 11,4 9,7   Kalm   1023,9 89 -
05:54 11,5 9,7   Kalm   1023,9 89 -
05:59 11,5 9,7   Kalm   1023,9 89 -
06:04 11,6 9,8   Kalm   1023,9 89 -
06:09 11,6 9,8   Kalm   1023,9 89 -
06:14 11,6 9,8   Kalm   1023,9 89 -
06:19 11,7 9,9   Kalm   1023,9 89 -
06:24 11,7 9,9   Kalm   1023,9 89 -
06:29 11,7 9,9   Kalm   1023,9 89 -
06:34 11,7 9,9   Kalm   1023,9 89 -

Download your copy of this data-set  here

Our weather-data as stored at Weather Underground. Script ontwikkeld door Jim McMurry. Aangepast voor de template door Leuven-Template.eu

U vindt ons ook hier:

UK Metoffice

Weather Underground

AWEKAS